Weather History for Twin Falls, ID

Change the Weather History Date:

Saturday, March 29, 2014

  Actual Average Record
Temperature  
Mean Temperature 45 °F -  
Max Temperature 54 °F 56 °F 75 °F (1986)
Min Temperature 36 °F 33 °F 18 °F (1987)
Degree Days  
Heating Degree Days 20 20  
Month to date heating degree days 561 681  
Since 1 July heating degree days 4814 5248  
Cooling Degree Days 0 0  
Month to date cooling degree days 0 0  
Year to date cooling degree days 0 0  
Moisture  
Dew Point 35 °F    
Average Humidity 67    
Maximum Humidity 92    
Minimum Humidity 41    
Precipitation  
Precipitation 0.62 in 0.04 in 0.62 in (2014)
Month to date precipitation 1.81 0.95  
Year to date precipitation 4.05 2.74  
Sea Level Pressure  
Sea Level Pressure 29.87 in    
Wind  
Wind Speed 10 mph (WSW)    
Max Wind Speed 20 mph    
Max Gust Speed 25 mph    
Visibility 8 miles    
Events Rain    
T = Trace of Precipitation, MM = Missing Value Source: NWS Daily Summary

Daily Weather History Graph

Daily Weather History Graph

Search for Another Location

Airport:

Trip Planner

Search our weather history database for the weather conditions in past years. The results will help you decide how hot, cold, wet, or windy it might be!

Date:

Astronomy

Mar. 29, 2014 Rise Set
Actual Time 7:25 AM MDT 8:00 PM MDT
Civil Twilight 6:57 AM MDT 8:28 PM MDT
Nautical Twilight 6:23 AM MDT 9:02 PM MDT
Astronomical Twilight 5:49 AM MDT 9:37 PM MDT
Moon 6:37 AM MDT (3/29) 7:09 PM MDT (3/29)
Length of Visible Light 13h 31m
Length of Day
12h 35m
Waning Crescent, 1% of the Moon is Illuminated
Mar 29
Waning Crescent
Mar 30
New
Apr 7
First Quarter
Apr 15
Full
Apr 22
Last Quarter

Hourly Weather History & Observations

Time (MDT) Temp. Windchill Dew Point Humidity Pressure Visibility Wind Dir Wind Speed Gust Speed Precip Events Conditions
12:53 AM 46.9 °F - 28.9 °F 50% 29.90 in 10.0 mi South 11.5 mph - N/A   Clear
1:53 AM 48.0 °F - 28.0 °F 46% 29.88 in 10.0 mi South 16.1 mph - N/A   Clear
2:53 AM 48.0 °F - 28.9 °F 48% 29.87 in 10.0 mi South 12.7 mph - N/A   Scattered Clouds
3:53 AM 46.9 °F - 28.9 °F 50% 29.85 in 10.0 mi SSW 13.8 mph - N/A   Scattered Clouds
4:53 AM 46.9 °F - 28.9 °F 50% 29.83 in 10.0 mi SSW 11.5 mph - N/A   Clear
5:53 AM 46.0 °F 39.3 °F 28.0 °F 50% 29.85 in 10.0 mi SSW 16.1 mph - N/A   Clear
6:53 AM 46.0 °F 39.0 °F 28.0 °F 50% 29.86 in 10.0 mi South 17.3 mph - N/A   Clear
7:53 AM 48.9 °F - 27.0 °F 43% 29.87 in 10.0 mi South 15.0 mph - N/A   Overcast
8:53 AM 50.0 °F - 28.0 °F 43% 29.88 in 10.0 mi South 12.7 mph - N/A   Overcast
9:53 AM 52.0 °F - 28.9 °F 41% 29.87 in 10.0 mi South 11.5 mph - N/A   Overcast
10:53 AM 54.0 °F - 30.0 °F 40% 29.88 in 10.0 mi South 12.7 mph - 0.00 in   Overcast
11:53 AM 53.1 °F - 32.0 °F 45% 29.88 in 10.0 mi NW 8.1 mph - N/A   Overcast
12:53 PM 50.0 °F - 37.9 °F 63% 29.88 in 10.0 mi NE 3.5 mph - 0.02 in Rain Light Rain
1:53 PM 51.1 °F - 37.0 °F 59% 29.88 in 8.0 mi WSW 5.8 mph - 0.01 in Rain Light Rain
2:53 PM 50.0 °F - 39.0 °F 66% 29.87 in 10.0 mi West 4.6 mph - 0.03 in Rain Light Rain
3:53 PM 48.9 °F - 39.9 °F 71% 29.86 in 8.0 mi Calm Calm - 0.03 in Rain Light Rain
4:48 PM 46.4 °F 41.5 °F 42.8 °F 87% 29.92 in 3.0 mi NW 10.4 mph - 0.07 in Rain Rain
4:53 PM 46.0 °F 41.0 °F 42.1 °F 86% 29.87 in 3.0 mi NW 10.4 mph - 0.08 in Rain Rain
5:11 PM 46.0 °F 44.8 °F 41.0 °F 83% 29.92 in 6.0 mi NNW 3.5 mph - 0.02 in Rain Light Rain
5:51 PM 46.4 °F 42.9 °F 41.0 °F 81% 29.90 in 10.0 mi North 6.9 mph - 0.02 in Rain Light Rain
5:53 PM 46.9 °F - 41.0 °F 80% 29.84 in 10.0 mi North 6.9 mph - 0.02 in Rain Light Rain
6:07 PM 46.0 °F 40.6 °F 41.0 °F 83% 29.90 in 10.0 mi NNW 11.5 mph - 0.00 in Rain Light Rain
6:14 PM 46.0 °F 41.0 °F 41.0 °F 83% 29.90 in 6.0 mi North 10.4 mph - 0.01 in Rain Light Rain
6:24 PM 45.0 °F 40.6 °F 41.0 °F 86% 29.89 in 7.0 mi North 8.1 mph - 0.01 in Rain Light Rain
6:36 PM 45.0 °F 41.8 °F 39.9 °F 82% 29.89 in 10.0 mi North 5.8 mph - 0.01 in Rain Light Rain
6:53 PM 45.0 °F 42.6 °F 41.0 °F 86% 29.83 in 9.0 mi NNE 4.6 mph - 0.02 in Rain Light Rain
7:29 PM 45.0 °F 40.6 °F 41.0 °F 86% 29.89 in 3.0 mi SSE 8.1 mph - 0.04 in Rain Rain
7:53 PM 45.0 °F 41.2 °F 39.9 °F 82% 29.83 in 7.0 mi SSW 6.9 mph - 0.07 in Rain Light Rain
8:53 PM 41.0 °F 32.5 °F 37.0 °F 86% 29.85 in 6.0 mi WNW 17.3 mph - 0.11 in Rain Rain
9:00 PM 41.0 °F 32.5 °F 36.0 °F 82% 29.91 in 8.0 mi WNW 17.3 mph - 0.01 in Rain Light Rain
9:53 PM 39.9 °F 33.9 °F 36.0 °F 86% 29.85 in 5.0 mi WNW 9.2 mph - 0.10 in Rain Light Rain
10:20 PM 39.0 °F 33.4 °F 35.1 °F 86% 29.90 in 6.0 mi WSW 8.1 mph - 0.02 in Rain Light Rain
10:53 PM 37.9 °F 30.9 °F 35.1 °F 89% 29.84 in 6.0 mi SSW 10.4 mph - 0.04 in Rain Light Rain
11:53 PM 37.0 °F 29.3 °F 33.1 °F 86% 29.82 in 9.0 mi SSW 11.5 mph - 0.05 in Rain Light Rain